| time (UTC) | temp F | wind direction | speed knots | gust knots | rain 1hr in | rain 24hr in | rain mn in | humidity % | barometer mb |
| 20260507200825 | 67 | 294 | 1.7 | 2.6 | 0.00 | 0.06 | 0.06 | 35 | 1007.9 |
| 20260507200321 | 67 | 169 | 0.0 | 0.9 | 0.00 | 0.06 | 0.06 | 36 | 1007.8 |
| 20260507195817 | 66 | 197 | 0.9 | 1.7 | 0.00 | 0.06 | 0.06 | 36 | 1007.7 |
| 20260507195315 | 66 | 177 | 0.0 | 0.9 | 0.00 | 0.06 | 0.06 | 39 | 1007.8 |
| 20260507194812 | 66 | 16 | 2.6 | 2.6 | 0.00 | 0.06 | 0.06 | 39 | 1007.9 |
| 20260507194308 | 68 | 165 | 0.9 | 0.9 | 0.00 | 0.06 | 0.06 | 37 | 1008.0 |
| 20260507193805 | 67 | 159 | 0.9 | 1.7 | 0.00 | 0.06 | 0.06 | 38 | 1008.1 |
| 20260507193302 | 66 | 194 | 0.9 | 0.9 | 0.00 | 0.06 | 0.06 | 38 | 1008.0 |
| 20260507192757 | 66 | 262 | 3.5 | 3.5 | 0.00 | 0.06 | 0.06 | 36 | 1008.0 |
| 20260507192255 | 66 | 211 | 0.9 | 0.9 | 0.00 | 0.06 | 0.06 | 42 | 1008.3 |
| 20260507191750 | 67 | 349 | 1.7 | 3.5 | 0.00 | 0.06 | 0.06 | 38 | 1008.4 |
| 20260507191248 | 67 | 181 | 0.9 | 0.9 | 0.00 | 0.06 | 0.06 | 38 | 1008.4 |
| 20260507190744 | 65 | 330 | 0.9 | 1.7 | 0.00 | 0.06 | 0.06 | 37 | 1008.5 |
| 20260507190243 | 66 | 269 | 0.9 | 1.7 | 0.00 | 0.06 | 0.06 | 38 | 1008.5 |
| 20260507185741 | 66 | 206 | 2.6 | 2.6 | 0.00 | 0.06 | 0.06 | 38 | 1008.7 |
| 20260507185237 | 66 | 223 | 0.9 | 1.7 | 0.00 | 0.06 | 0.06 | 38 | 1008.6 |
| 20260507184735 | 66 | 149 | 0.9 | 1.7 | 0.00 | 0.06 | 0.06 | 42 | 1008.6 |
| 20260507184233 | 66 | 27 | 1.7 | 1.7 | 0.00 | 0.06 | 0.06 | 40 | 1008.6 |
| 20260507183729 | 65 | 200 | 0.9 | 1.7 | 0.00 | 0.06 | 0.06 | 41 | 1008.6 |
| 20260507183226 | 66 | 88 | 2.6 | 2.6 | 0.00 | 0.06 | 0.06 | 39 | 1008.7 |
| 20260507182724 | 65 | 161 | 1.7 | 3.5 | 0.00 | 0.06 | 0.06 | 42 | 1008.8 |
| 20260507182218 | 65 | 46 | 0.9 | 1.7 | 0.00 | 0.06 | 0.06 | 41 | 1008.8 |
| 20260507181716 | 66 | 112 | 1.7 | 2.6 | 0.00 | 0.06 | 0.06 | 42 | 1008.9 |
| 20260507181212 | 65 | 217 | 2.6 | 2.6 | 0.00 | 0.06 | 0.06 | 45 | 1008.8 |
| 20260507180710 | 65 | 198 | 0.0 | 0.9 | 0.00 | 0.06 | 0.06 | 46 | 1009.0 |
| 20260507180206 | 64 | 146 | 0.9 | 1.7 | 0.00 | 0.06 | 0.06 | 42 | 1009.3 |
| 20260507175701 | 64 | 23 | 2.6 | 3.5 | 0.00 | 0.06 | 0.06 | 45 | 1009.1 |
| 20260507175158 | 62 | 150 | 4.3 | 5.2 | 0.00 | 0.06 | 0.06 | 45 | 1009.1 |
| 20260507174655 | 64 | 87 | 3.5 | 3.5 | 0.00 | 0.06 | 0.06 | 42 | 1009.4 |
| 20260507174153 | 64 | 88 | 3.5 | 6.1 | 0.00 | 0.06 | 0.06 | 47 | 1009.2 |
| 20260507173645 | 64 | 96 | 1.7 | 2.6 | 0.00 | 0.06 | 0.06 | 42 | 1009.3 |
| 20260507173142 | 63 | 171 | 0.9 | 0.9 | 0.00 | 0.06 | 0.06 | 43 | 1009.5 |
| 20260507172638 | 64 | 119 | 0.9 | 0.9 | 0.00 | 0.06 | 0.06 | 44 | 1009.6 |
| 20260507172135 | 62 | 183 | 0.9 | 1.7 | 0.00 | 0.06 | 0.06 | 46 | 1009.8 |
| 20260507171635 | 62 | 248 | 1.7 | 1.7 | 0.00 | 0.06 | 0.06 | 46 | 1009.9 |
| 20260507171132 | 62 | 114 | 0.9 | 1.7 | 0.00 | 0.06 | 0.06 | 47 | 1009.7 |
| 20260507170629 | 61 | 212 | 0.0 | 0.9 | 0.00 | 0.06 | 0.06 | 47 | 1010.0 |
| 20260507170126 | 62 | 112 | 0.9 | 0.9 | 0.00 | 0.06 | 0.06 | 47 | 1010.0 |
| 20260507165622 | 62 | 53 | 1.7 | 2.6 | 0.00 | 0.06 | 0.06 | 49 | 1010.2 |
| 20260507165119 | 62 | 64 | 0.9 | 1.7 | 0.00 | 0.06 | 0.06 | 48 | 1010.1 |
| 20260507164614 | 61 | 138 | 3.5 | 5.2 | 0.00 | 0.06 | 0.06 | 51 | 1010.5 |
| 20260507164111 | 61 | 183 | 0.0 | 0.9 | 0.00 | 0.06 | 0.06 | 52 | 1010.2 |
| 20260507163610 | 60 | 47 | 3.5 | 3.5 | 0.00 | 0.06 | 0.06 | 52 | 1010.4 |
| 20260507163108 | 60 | 45 | 5.2 | 8.7 | 0.00 | 0.06 | 0.06 | 50 | 1010.5 |
| 20260507162607 | 60 | 101 | 1.7 | 2.6 | 0.00 | 0.06 | 0.06 | 53 | 1010.5 |
| 20260507162059 | 60 | 48 | 3.5 | 3.5 | 0.00 | 0.06 | 0.06 | 54 | 1010.7 |
| 20260507161555 | 59 | 78 | 4.3 | 6.1 | 0.00 | 0.06 | 0.06 | 55 | 1010.7 |
| 20260507161052 | 60 | 328 | 0.9 | 0.9 | 0.00 | 0.06 | 0.06 | 57 | 1010.7 |
| 20260507160549 | 61 | 181 | 0.9 | 1.7 | 0.00 | 0.06 | 0.06 | 56 | 1010.7 |
| 20260507160045 | 60 | 193 | 0.9 | 0.9 | 0.00 | 0.06 | 0.06 | 57 | 1010.8 |
| 20260507155540 | 59 | 184 | 0.0 | 0.9 | 0.00 | 0.06 | 0.06 | 58 | 1010.7 |
| 20260507155038 | 60 | 32 | 2.6 | 2.6 | 0.00 | 0.06 | 0.06 | 57 | 1010.9 |
| 20260507154534 | 61 | 270 | 2.6 | 2.6 | 0.00 | 0.06 | 0.06 | 53 | 1010.8 |
| 20260507154032 | 60 | 2 | 2.6 | 5.2 | 0.00 | 0.06 | 0.06 | 58 | 1011.1 |
| 20260507153528 | 59 | 273 | 1.7 | 1.7 | 0.00 | 0.06 | 0.06 | 58 | 1011.2 |
| 20260507153024 | 59 | 70 | 3.5 | 5.2 | 0.00 | 0.06 | 0.06 | 57 | 1011.2 |
| 20260507152520 | 60 | 6 | 0.9 | 2.6 | 0.00 | 0.06 | 0.06 | 57 | 1011.1 |
| 20260507152017 | 60 | 77 | 2.6 | 2.6 | 0.00 | 0.06 | 0.06 | 57 | 1011.3 |
| 20260507151513 | 59 | 27 | 1.7 | 2.6 | 0.00 | 0.06 | 0.06 | 58 | 1011.8 |
| 20260507151010 | 59 | 96 | 2.6 | 3.5 | 0.00 | 0.06 | 0.06 | 59 | 1011.6 |
| 20260507150507 | 58 | 194 | 0.9 | 1.7 | 0.00 | 0.06 | 0.06 | 61 | 1011.7 |
| 20260507150005 | 59 | 286 | 3.5 | 3.5 | 0.00 | 0.06 | 0.06 | 61 | 1011.3 |
| 20260507145459 | 58 | 97 | 1.7 | 3.5 | 0.00 | 0.06 | 0.06 | 63 | 1011.8 |
| 20260507144956 | 59 | 237 | 1.7 | 1.7 | 0.00 | 0.06 | 0.06 | 61 | 1011.6 |
| 20260507144453 | 58 | 160 | 0.0 | 0.9 | 0.00 | 0.06 | 0.06 | 63 | 1011.7 |
| 20260507143950 | 57 | 147 | 0.9 | 1.7 | 0.00 | 0.06 | 0.06 | 65 | 1011.9 |
| 20260507143448 | 57 | 151 | 1.7 | 2.6 | 0.00 | 0.06 | 0.06 | 65 | 1011.8 |
| 20260507142944 | 57 | 101 | 1.7 | 2.6 | 0.00 | 0.06 | 0.06 | 63 | 1011.9 |
| 20260507142440 | 57 | 117 | 1.7 | 3.5 | 0.00 | 0.06 | 0.06 | 63 | 1011.9 |
| 20260507141937 | 56 | 268 | 1.7 | 2.6 | 0.00 | 0.06 | 0.06 | 64 | 1011.9 |
| 20260507141433 | 56 | 319 | 1.7 | 2.6 | 0.00 | 0.06 | 0.06 | 65 | 1011.8 |
| 20260507140930 | 56 | 284 | 1.7 | 2.6 | 0.00 | 0.06 | 0.06 | 67 | 1012.0 |
| 20260507140427 | 55 | 147 | 0.0 | 0.0 | 0.00 | 0.06 | 0.06 | 68 | 1011.9 |
| 20260507135925 | 55 | 333 | 1.7 | 1.7 | 0.00 | 0.06 | 0.06 | 69 | 1012.1 |
| 20260507135421 | 55 | 243 | 0.9 | 0.9 | 0.00 | 0.06 | 0.06 | 69 | 1012.3 |
| 20260507134918 | 55 | 345 | 0.9 | 0.9 | 0.00 | 0.06 | 0.06 | 69 | 1012.3 |
| 20260507134415 | 56 | 214 | 0.9 | 0.9 | 0.00 | 0.06 | 0.06 | 70 | 1012.0 |
| 20260507133910 | 55 | 243 | 1.7 | 2.6 | 0.00 | 0.06 | 0.06 | 68 | 1012.0 |
| 20260507133406 | 55 | 49 | 0.9 | 1.7 | 0.00 | 0.06 | 0.06 | 70 | 1011.9 |
| 20260507132900 | 55 | 262 | 1.7 | 1.7 | 0.00 | 0.06 | 0.06 | 71 | 1012.1 |
| 20260507132355 | 55 | 218 | 1.7 | 1.7 | 0.00 | 0.06 | 0.06 | 72 | 1012.1 |
| 20260507131852 | 55 | 190 | 0.0 | 0.9 | 0.00 | 0.06 | 0.06 | 72 | 1012.2 |
| 20260507131349 | 54 | 17 | 0.9 | 0.9 | 0.00 | 0.06 | 0.06 | 73 | 1012.1 |
| 20260507130846 | 54 | 35 | 3.5 | 6.1 | 0.00 | 0.06 | 0.06 | 74 | 1012.0 |
| 20260507130343 | 54 | 13 | 0.9 | 1.7 | 0.00 | 0.06 | 0.06 | 75 | 1012.0 |
| 20260507125842 | 54 | 358 | 3.5 | 5.2 | 0.00 | 0.06 | 0.06 | 76 | 1012.1 |
| 20260507125339 | 53 | 358 | 1.7 | 3.5 | 0.00 | 0.06 | 0.06 | 78 | 1011.9 |
| 20260507124836 | 53 | 89 | 2.6 | 5.2 | 0.00 | 0.06 | 0.06 | 79 | 1012.2 |
| 20260507124332 | 53 | 336 | 1.7 | 1.7 | 0.00 | 0.06 | 0.06 | 81 | 1012.1 |
| 20260507123831 | 53 | 83 | 1.7 | 2.6 | 0.00 | 0.06 | 0.06 | 83 | 1011.9 |
| 20260507123328 | 53 | 308 | 0.0 | 0.9 | 0.00 | 0.06 | 0.06 | 84 | 1012.0 |
| 20260507122824 | 53 | 168 | 0.0 | 0.9 | 0.00 | 0.06 | 0.06 | 85 | 1012.0 |
| 20260507122319 | 52 | 81 | 0.0 | 0.9 | 0.00 | 0.06 | 0.06 | 85 | 1011.9 |
| 20260507121816 | 52 | 26 | 0.9 | 1.7 | 0.00 | 0.06 | 0.06 | 85 | 1012.0 |
| 20260507121312 | 53 | 223 | 0.0 | 0.9 | 0.00 | 0.06 | 0.06 | 86 | 1011.9 |
| 20260507120808 | 52 | 170 | 0.0 | 0.0 | 0.00 | 0.06 | 0.06 | 87 | 1011.7 |
| 20260507120305 | 52 | 254 | 0.9 | 0.9 | 0.00 | 0.06 | 0.06 | 87 | 1011.9 |
| 20260507115801 | 52 | 205 | 0.0 | 0.9 | 0.00 | 0.06 | 0.06 | 89 | 1011.9 |
| 20260507115257 | 52 | 163 | 0.0 | 0.0 | 0.00 | 0.06 | 0.06 | 89 | 1011.9 |
| 20260507114753 | 52 | 196 | 0.0 | 0.0 | 0.00 | 0.06 | 0.06 | 90 | 1012.0 |
| 20260507114250 | 52 | 202 | 0.0 | 0.9 | 0.00 | 0.06 | 0.06 | 90 | 1012.0 |
| 20260507113748 | 52 | 188 | 0.0 | 0.9 | 0.00 | 0.06 | 0.06 | 91 | 1011.9 |
| 20260507113244 | 51 | 12 | 0.9 | 1.7 | 0.00 | 0.06 | 0.06 | 91 | 1011.9 |
| 20260507112742 | 51 | 223 | 0.0 | 0.0 | 0.00 | 0.06 | 0.06 | 92 | 1011.7 |
| 20260507112239 | 51 | 218 | 0.0 | 0.0 | 0.00 | 0.06 | 0.06 | 92 | 1011.9 |
| 20260507111737 | 51 | 207 | 0.0 | 0.0 | 0.00 | 0.06 | 0.06 | 92 | 1011.5 |
| 20260507111233 | 51 | 128 | 0.0 | 0.0 | 0.00 | 0.06 | 0.06 | 92 | 1011.4 |
| 20260507110729 | 51 | 231 | 0.9 | 0.9 | 0.00 | 0.06 | 0.06 | 92 | 1011.5 |
| 20260507110226 | 51 | 209 | 0.0 | 0.0 | 0.00 | 0.06 | 0.06 | 92 | 1011.3 |
| 20260507105722 | 51 | 158 | 0.0 | 0.0 | 0.00 | 0.06 | 0.06 | 92 | 1011.2 |
| 20260507105219 | 51 | 184 | 0.0 | 0.0 | 0.00 | 0.06 | 0.06 | 93 | 1011.1 |
| 20260507104716 | 51 | 213 | 0.0 | 0.0 | 0.00 | 0.06 | 0.06 | 93 | 1011.1 |
| 20260507104213 | 51 | 203 | 0.0 | 0.0 | 0.00 | 0.06 | 0.06 | 93 | 1011.0 |
| 20260507103708 | 51 | 121 | 0.0 | 0.0 | 0.00 | 0.06 | 0.06 | 93 | 1010.8 |
| 20260507103205 | 50 | 177 | 0.0 | 0.0 | 0.00 | 0.06 | 0.06 | 93 | 1010.9 |
| 20260507102701 | 50 | 178 | 0.0 | 0.0 | 0.00 | 0.06 | 0.06 | 93 | 1010.8 |
| 20260507102158 | 50 | 177 | 0.0 | 0.0 | 0.00 | 0.06 | 0.06 | 93 | 1010.7 |
| 20260507101654 | 50 | 178 | 0.0 | 0.0 | 0.00 | 0.06 | 0.06 | 93 | 1010.7 |
| 20260507101149 | 50 | 179 | 0.0 | 0.0 | 0.00 | 0.06 | 0.06 | 93 | 1010.8 |
| 20260507100647 | 50 | 174 | 0.9 | 0.9 | 0.00 | 0.06 | 0.06 | 93 | 1010.8 |
| 20260507100145 | 50 | 60 | 1.7 | 1.7 | 0.00 | 0.06 | 0.06 | 93 | 1010.7 |
| 20260507095643 | 51 | 133 | 0.0 | 0.0 | 0.00 | 0.06 | 0.06 | 93 | 1010.9 |
| 20260507095139 | 50 | 190 | 0.0 | 0.0 | 0.00 | 0.06 | 0.06 | 93 | 1010.8 |
| 20260507094636 | 50 | 240 | 0.0 | 0.9 | 0.00 | 0.06 | 0.06 | 93 | 1010.7 |
| 20260507094133 | 50 | 130 | 0.0 | 0.0 | 0.00 | 0.06 | 0.06 | 93 | 1010.7 |
| 20260507093630 | 51 | 122 | 0.0 | 0.0 | 0.00 | 0.06 | 0.06 | 93 | 1010.6 |
| 20260507093129 | 50 | 124 | 0.0 | 0.9 | 0.00 | 0.06 | 0.06 | 93 | 1010.6 |
| 20260507092625 | 51 | 148 | 0.0 | 0.0 | 0.00 | 0.06 | 0.06 | 93 | 1010.6 |
| 20260507092121 | 51 | 192 | 0.0 | 0.9 | 0.00 | 0.06 | 0.06 | 93 | 1010.6 |
| 20260507091618 | 51 | 202 | 0.0 | 0.0 | 0.00 | 0.06 | 0.06 | 93 | 1010.6 |
| 20260507091114 | 51 | 198 | 0.9 | 0.9 | 0.00 | 0.06 | 0.06 | 93 | 1010.4 |
| 20260507090610 | 51 | 208 | 0.0 | 0.0 | 0.00 | 0.06 | 0.06 | 93 | 1010.5 |
| 20260507090107 | 51 | 129 | 0.0 | 0.0 | 0.00 | 0.06 | 0.06 | 93 | 1010.6 |
| 20260507085604 | 51 | 133 | 0.0 | 0.9 | 0.00 | 0.06 | 0.06 | 93 | 1010.4 |
| 20260507085101 | 51 | 204 | 0.0 | 0.9 | 0.00 | 0.06 | 0.06 | 93 | 1010.2 |
| 20260507084558 | 51 | 184 | 0.0 | 0.0 | 0.00 | 0.06 | 0.06 | 93 | 1010.2 |
| 20260507084055 | 51 | 182 | 0.0 | 0.0 | 0.00 | 0.06 | 0.06 | 93 | 1010.0 |
| 20260507083551 | 51 | 226 | 0.0 | 0.0 | 0.00 | 0.06 | 0.06 | 93 | 1010.2 |
| 20260507083048 | 51 | 158 | 0.0 | 0.0 | 0.00 | 0.06 | 0.06 | 93 | 1010.0 |
| 20260507082544 | 51 | 223 | 0.0 | 0.0 | 0.00 | 0.06 | 0.06 | 93 | 1010.0 |
| 20260507082035 | 51 | 135 | 0.0 | 0.0 | 0.00 | 0.06 | 0.06 | 93 | 1010.1 |
| 20260507081531 | 51 | 289 | 0.9 | 0.9 | 0.00 | 0.06 | 0.06 | 94 | 1010.3 |
| 20260507081029 | 51 | 1 | 1.7 | 1.7 | 0.00 | 0.06 | 0.06 | 94 | 1010.2 |
| 20260507080524 | 51 | 217 | 0.9 | 1.7 | 0.00 | 0.06 | 0.06 | 94 | 1010.2 |
| 20260507080021 | 51 | 200 | 0.9 | 0.9 | 0.00 | 0.06 | 0.06 | 94 | 1009.9 |
| 20260507075516 | 51 | 54 | 1.7 | 2.6 | 0.00 | 0.06 | 0.06 | 95 | 1009.7 |
| 20260507075013 | 51 | 42 | 0.9 | 1.7 | 0.00 | 0.06 | 0.06 | 95 | 1010.1 |
| 20260507074509 | 51 | 316 | 1.7 | 1.7 | 0.00 | 0.06 | 0.06 | 95 | 1010.3 |
| 20260507074008 | 51 | 259 | 0.0 | 0.9 | 0.00 | 0.06 | 0.06 | 95 | 1010.1 |
| 20260507073504 | 52 | 224 | 0.9 | 0.9 | 0.00 | 0.06 | 0.06 | 96 | 1010.1 |
| 20260507073000 | 52 | 32 | 0.0 | 0.0 | 0.00 | 0.06 | 0.06 | 96 | 1010.3 |
| 20260507072458 | 52 | 289 | 0.9 | 0.9 | 0.00 | 0.06 | 0.06 | 96 | 1010.8 |
| 20260507071955 | 52 | 61 | 0.9 | 0.9 | 0.00 | 0.06 | 0.06 | 96 | 1010.6 |
| 20260507071452 | 52 | 225 | 0.0 | 0.9 | 0.00 | 0.06 | 0.06 | 95 | 1010.3 |
| 20260507070948 | 52 | 96 | 0.9 | 0.9 | 0.00 | 0.06 | 0.06 | 95 | 1010.3 |
| 20260507070446 | 51 | 251 | 0.9 | 0.9 | 0.00 | 0.06 | 0.06 | 95 | 1010.1 |
| 20260507065943 | 51 | 138 | 0.0 | 0.0 | 0.00 | 0.06 | 0.06 | 95 | 1010.1 |
| 20260507065439 | 51 | 174 | 0.0 | 0.0 | 0.00 | 0.06 | 0.06 | 94 | 1010.2 |
| 20260507064936 | 51 | 121 | 0.0 | 0.0 | 0.00 | 0.06 | 0.06 | 94 | 1010.0 |
| 20260507064435 | 51 | 230 | 0.0 | 0.0 | 0.00 | 0.06 | 0.06 | 94 | 1010.1 |
| 20260507063932 | 51 | 72 | 0.9 | 0.9 | 0.05 | 0.06 | 0.06 | 94 | 1010.0 |
| 20260507063429 | 52 | 150 | 0.9 | 1.7 | 0.05 | 0.06 | 0.06 | 94 | 1009.8 |
| 20260507062926 | 52 | 46 | 3.5 | 5.2 | 0.07 | 0.05 | 0.05 | 93 | 1010.1 |
| 20260507062423 | 52 | 157 | 1.7 | 3.5 | 0.07 | 0.05 | 0.05 | 93 | 1010.6 |
| 20260507061921 | 53 | 335 | 2.6 | 3.5 | 0.05 | 0.04 | 0.04 | 93 | 1010.1 |
| 20260507061418 | 53 | 333 | 2.6 | 3.5 | 0.24 | 0.04 | 0.04 | 92 | 1010.2 |
| 20260507060917 | 54 | 285 | 1.7 | 1.7 | 0.19 | 0.03 | 0.03 | 90 | 1010.2 |
| 20260507060413 | 55 | 287 | 0.9 | 0.9 | 0.00 | 0.00 | 0.00 | 87 | 1010.1 |
| 20260507055910 | 56 | 28 | 1.7 | 1.7 | 0.00 | 0.00 | 0.00 | 85 | 1009.6 |
| 20260507055405 | 56 | 277 | 3.5 | 3.5 | 0.00 | 0.00 | 0.00 | 85 | 1009.7 |
| 20260507054902 | 56 | 93 | 1.7 | 3.5 | 0.00 | 0.00 | 0.00 | 87 | 1009.6 |
| 20260507054358 | 57 | 143 | 0.9 | 1.7 | 0.00 | 0.00 | 0.00 | 87 | 1009.5 |
| 20260507053855 | 57 | 49 | 1.7 | 2.6 | 0.00 | 0.00 | 0.00 | 87 | 1009.7 |
| 20260507053353 | 57 | 1 | 1.7 | 1.7 | 0.00 | 0.00 | 0.00 | 88 | 1010.0 |
| 20260507052852 | 57 | 97 | 1.7 | 2.6 | 0.00 | 0.00 | 0.00 | 88 | 1009.7 |
| 20260507052348 | 57 | 249 | 1.7 | 1.7 | 0.00 | 0.00 | 0.00 | 88 | 1009.5 |
| 20260507051845 | 58 | 69 | 0.9 | 0.9 | 0.00 | 0.00 | 0.00 | 88 | 1009.6 |
| 20260507051343 | 58 | 82 | 0.9 | 0.9 | 0.00 | 0.00 | 0.00 | 88 | 1009.5 |
| 20260507050834 | 58 | 51 | 2.6 | 3.5 | 0.00 | 0.00 | 0.00 | 89 | 1008.8 |
| 20260507050330 | 58 | 136 | 0.9 | 0.9 | 0.00 | 0.00 | 0.00 | 89 | 1008.7 |
| 20260507045827 | 58 | 167 | 0.0 | 0.0 | 0.00 | 0.00 | 0.00 | 90 | 1008.9 |
| 20260507045324 | 59 | 166 | 0.0 | 0.0 | 0.00 | 0.00 | 0.00 | 91 | 1008.8 |
| 20260507044821 | 59 | 70 | 0.9 | 0.9 | 0.00 | 0.00 | 0.00 | 92 | 1009.0 |
| 20260507044318 | 59 | 102 | 1.7 | 2.6 | 0.00 | 0.00 | 0.00 | 93 | 1009.0 |
| 20260507043814 | 60 | 27 | 2.6 | 3.5 | 0.00 | 0.00 | 0.00 | 93 | 1008.9 |
| 20260507043310 | 60 | 208 | 0.9 | 0.9 | 0.00 | 0.00 | 0.00 | 93 | 1008.6 |
| 20260507042807 | 61 | 276 | 1.7 | 2.6 | 0.00 | 0.00 | 0.00 | 92 | 1008.8 |
| 20260507042306 | 62 | 270 | 2.6 | 3.5 | 0.00 | 0.00 | 0.00 | 93 | 1008.8 |
| 20260507041800 | 64 | 223 | 3.5 | 6.1 | 0.00 | 0.00 | 0.00 | 93 | 1008.9 |
| 20260507041256 | 64 | 218 | 0.0 | 0.0 | 0.00 | 0.00 | 0.00 | 93 | 1008.7 |
| 20260507040753 | 64 | 222 | 0.9 | 0.9 | 0.00 | 0.00 | 0.00 | 92 | 1008.5 |
| 20260507040249 | 64 | 191 | 0.9 | 0.9 | 0.00 | 0.00 | 0.00 | 92 | 1008.5 |
| 20260507035745 | 64 | 238 | 0.9 | 0.9 | 0.00 | 0.00 | 0.00 | 92 | 1008.4 |
| 20260507035240 | 64 | 349 | 0.9 | 1.7 | 0.00 | 0.00 | 0.00 | 91 | 1008.7 |
| 20260507034739 | 65 | 313 | 0.9 | 0.9 | 0.00 | 0.00 | 0.00 | 90 | 1009.0 |
| 20260507034235 | 65 | 107 | 0.0 | 0.9 | 0.00 | 0.00 | 0.00 | 90 | 1008.9 |
| 20260507033734 | 65 | 357 | 0.9 | 1.7 | 0.00 | 0.00 | 0.00 | 88 | 1008.7 |
| 20260507033231 | 65 | 223 | 0.9 | 0.9 | 0.00 | 0.00 | 0.00 | 87 | 1008.4 |
| 20260507032728 | 65 | 56 | 0.9 | 0.9 | 0.00 | 0.00 | 0.00 | 87 | 1008.5 |
| 20260507032224 | 65 | 187 | 0.0 | 0.0 | 0.00 | 0.00 | 0.00 | 87 | 1008.1 |
| 20260507031721 | 65 | 181 | 0.0 | 0.0 | 0.00 | 0.00 | 0.00 | 87 | 1008.3 |
| 20260507031217 | 65 | 175 | 0.0 | 0.0 | 0.00 | 0.00 | 0.00 | 87 | 1008.1 |
| 20260507030714 | 65 | 171 | 0.0 | 0.0 | 0.00 | 0.00 | 0.00 | 87 | 1008.0 |
| 20260507030212 | 65 | 179 | 0.0 | 0.0 | 0.00 | 0.00 | 0.00 | 87 | 1008.6 |
| 20260507025709 | 65 | 191 | 0.9 | 0.9 | 0.00 | 0.00 | 0.00 | 87 | 1008.4 |
| 20260507025206 | 65 | 136 | 0.0 | 0.9 | 0.00 | 0.00 | 0.00 | 87 | 1008.4 |
| 20260507024704 | 65 | 199 | 0.0 | 0.0 | 0.00 | 0.00 | 0.00 | 87 | 1008.5 |
| 20260507024201 | 65 | 182 | 0.0 | 0.0 | 0.00 | 0.00 | 0.00 | 87 | 1008.2 |
| 20260507023656 | 65 | 174 | 0.9 | 0.9 | 0.00 | 0.00 | 0.00 | 87 | 1008.3 |
| 20260507023154 | 65 | 188 | 0.0 | 0.0 | 0.00 | 0.00 | 0.00 | 87 | 1008.3 |
| 20260507022651 | 65 | 181 | 0.0 | 0.0 | 0.00 | 0.00 | 0.00 | 87 | 1008.6 |
| 20260507022146 | 65 | 202 | 0.0 | 0.9 | 0.00 | 0.00 | 0.00 | 87 | 1008.7 |
| 20260507021643 | 65 | 189 | 0.0 | 0.0 | 0.00 | 0.00 | 0.00 | 87 | 1008.6 |
| 20260507021138 | 65 | 209 | 0.9 | 0.9 | 0.00 | 0.00 | 0.00 | 87 | 1008.3 |
| 20260507020637 | 65 | 196 | 0.9 | 0.9 | 0.00 | 0.00 | 0.00 | 86 | 1008.4 |
| 20260507020132 | 65 | 161 | 0.0 | 0.0 | 0.00 | 0.00 | 0.00 | 86 | 1008.7 |
| 20260507015631 | 66 | 190 | 0.0 | 0.0 | 0.00 | 0.00 | 0.00 | 86 | 1008.6 |
| 20260507015128 | 66 | 179 | 0.0 | 0.0 | 0.00 | 0.00 | 0.00 | 85 | 1008.4 |
| 20260507014625 | 66 | 188 | 0.0 | 0.9 | 0.00 | 0.00 | 0.00 | 85 | 1008.8 |
| 20260507014120 | 66 | 190 | 0.0 | 0.0 | 0.00 | 0.00 | 0.00 | 85 | 1008.8 |
| 20260507013618 | 66 | 221 | 0.9 | 1.7 | 0.00 | 0.00 | 0.00 | 84 | 1008.6 |
| 20260507013114 | 66 | 193 | 0.0 | 0.9 | 0.00 | 0.00 | 0.00 | 84 | 1008.5 |
| 20260507012612 | 66 | 174 | 0.9 | 0.9 | 0.00 | 0.00 | 0.00 | 84 | 1008.8 |
| 20260507012107 | 66 | 194 | 0.9 | 0.9 | 0.00 | 0.00 | 0.00 | 84 | 1008.6 |
| 20260507011606 | 66 | 216 | 0.0 | 0.9 | 0.00 | 0.00 | 0.00 | 84 | 1008.6 |
| 20260507011102 | 66 | 198 | 0.9 | 0.9 | 0.00 | 0.00 | 0.00 | 83 | 1008.7 |
| 20260507010556 | 66 | 187 | 0.0 | 0.0 | 0.00 | 0.00 | 0.00 | 84 | 1008.8 |
| 20260507010052 | 66 | 202 | 0.0 | 0.9 | 0.00 | 0.00 | 0.00 | 84 | 1008.6 |
| 20260507005550 | 66 | 192 | 0.0 | 0.0 | 0.00 | 0.00 | 0.00 | 83 | 1008.8 |
| 20260507005046 | 66 | 190 | 0.9 | 0.9 | 0.00 | 0.00 | 0.00 | 83 | 1008.3 |
| 20260507004543 | 66 | 191 | 0.9 | 0.9 | 0.00 | 0.00 | 0.00 | 84 | 1008.4 |
| 20260507004041 | 66 | 188 | 0.0 | 0.0 | 0.00 | 0.00 | 0.00 | 83 | 1008.1 |
| 20260507003536 | 66 | 190 | 0.0 | 0.0 | 0.00 | 0.00 | 0.00 | 83 | 1008.0 |
| 20260507003032 | 66 | 181 | 0.0 | 0.0 | 0.00 | 0.00 | 0.00 | 83 | 1008.0 |
| 20260507002528 | 67 | 189 | 0.0 | 0.9 | 0.00 | 0.00 | 0.00 | 82 | 1008.0 |
| 20260507002019 | 67 | 187 | 1.7 | 1.7 | 0.00 | 0.00 | 0.00 | 81 | 1008.0 |
| 20260507001515 | 68 | 207 | 0.9 | 1.7 | 0.00 | 0.00 | 0.00 | 81 | 1007.7 |
| 20260507001013 | 68 | 36 | 1.7 | 1.7 | 0.00 | 0.00 | 0.00 | 81 | 1008.1 |
| 20260507000509 | 68 | 177 | 0.9 | 0.9 | 0.00 | 0.00 | 0.00 | 80 | 1008.0 |
| 20260507000005 | 68 | 226 | 0.9 | 1.7 | 0.00 | 0.00 | 0.00 | 80 | 1008.0 |
| 20260506235502 | 68 | 213 | 0.9 | 0.9 | 0.00 | 0.00 | 0.00 | 80 | 1007.8 |
| 20260506234958 | 68 | 199 | 0.9 | 0.9 | 0.00 | 0.00 | 0.00 | 79 | 1007.6 |
| 20260506234455 | 68 | 191 | 0.9 | 1.7 | 0.00 | 0.00 | 0.00 | 79 | 1007.6 |
| 20260506233952 | 69 | 123 | 1.7 | 2.6 | 0.00 | 0.00 | 0.00 | 79 | 1007.7 |
| 20260506233449 | 69 | 210 | 0.9 | 0.9 | 0.00 | 0.00 | 0.00 | 78 | 1007.7 |
| 20260506232945 | 69 | 246 | 0.9 | 0.9 | 0.00 | 0.00 | 0.00 | 78 | 1007.8 |
| 20260506232442 | 69 | 236 | 1.7 | 1.7 | 0.00 | 0.00 | 0.00 | 78 | 1007.8 |
| 20260506231938 | 69 | 197 | 0.9 | 0.9 | 0.00 | 0.00 | 0.00 | 78 | 1007.8 |
| 20260506231436 | 69 | 200 | 0.9 | 1.7 | 0.00 | 0.00 | 0.00 | 78 | 1007.7 |
| 20260506230932 | 69 | 198 | 0.9 | 0.9 | 0.00 | 0.00 | 0.00 | 77 | 1007.7 |
| 20260506230428 | 69 | 253 | 0.9 | 0.9 | 0.00 | 0.00 | 0.00 | 77 | 1007.8 |
| 20260506225925 | 69 | 240 | 0.9 | 1.7 | 0.00 | 0.00 | 0.00 | 77 | 1007.7 |
| 20260506225423 | 69 | 175 | 0.0 | 0.9 | 0.00 | 0.00 | 0.00 | 77 | 1007.7 |
| 20260506224920 | 69 | 184 | 0.0 | 0.0 | 0.00 | 0.00 | 0.00 | 77 | 1007.6 |
| 20260506224417 | 69 | 185 | 0.9 | 0.9 | 0.00 | 0.00 | 0.00 | 77 | 1007.6 |
| 20260506223913 | 69 | 205 | 0.9 | 1.7 | 0.00 | 0.00 | 0.00 | 77 | 1007.6 |
| 20260506223409 | 69 | 189 | 0.9 | 0.9 | 0.00 | 0.00 | 0.00 | 77 | 1007.7 |
| 20260506222906 | 69 | 184 | 0.0 | 0.0 | 0.00 | 0.00 | 0.00 | 77 | 1007.7 |
| 20260506222402 | 69 | 217 | 1.7 | 2.6 | 0.00 | 0.00 | 0.00 | 77 | 1007.8 |
| 20260506221859 | 69 | 214 | 1.7 | 3.5 | 0.00 | 0.00 | 0.00 | 76 | 1007.8 |
| 20260506221356 | 69 | 209 | 0.9 | 1.7 | 0.00 | 0.00 | 0.00 | 76 | 1007.7 |
| 20260506220854 | 69 | 278 | 0.9 | 1.7 | 0.00 | 0.00 | 0.00 | 76 | 1007.5 |
| 20260506220349 | 69 | 203 | 0.9 | 0.9 | 0.00 | 0.00 | 0.00 | 76 | 1007.6 |
| 20260506215846 | 69 | 185 | 0.9 | 1.7 | 0.00 | 0.00 | 0.00 | 76 | 1007.7 |
| 20260506215342 | 70 | 191 | 1.7 | 3.5 | 0.00 | 0.00 | 0.00 | 76 | 1007.6 |
| 20260506214838 | 70 | 224 | 0.9 | 0.9 | 0.00 | 0.00 | 0.00 | 74 | 1007.6 |
| 20260506214335 | 69 | 215 | 1.7 | 2.6 | 0.00 | 0.00 | 0.00 | 76 | 1007.6 |
| 20260506213833 | 69 | 237 | 2.6 | 2.6 | 0.00 | 0.00 | 0.00 | 77 | 1007.6 |
| 20260506213330 | 69 | 203 | 0.9 | 0.9 | 0.00 | 0.00 | 0.00 | 77 | 1007.4 |
| 20260506212827 | 69 | 218 | 1.7 | 5.2 | 0.00 | 0.00 | 0.00 | 77 | 1007.6 |
| 20260506212323 | 68 | 194 | 0.0 | 0.9 | 0.00 | 0.00 | 0.00 | 76 | 1007.4 |
| 20260506211819 | 69 | 248 | 1.7 | 1.7 | 0.00 | 0.00 | 0.00 | 77 | 1007.6 |
| 20260506211315 | 69 | 234 | 3.5 | 5.2 | 0.00 | 0.00 | 0.00 | 76 | 1007.3 |
| 20260506210813 | 69 | 194 | 0.9 | 0.9 | 0.00 | 0.00 | 0.00 | 76 | 1007.5 |
| 20260506210309 | 69 | 248 | 3.5 | 6.1 | 0.00 | 0.00 | 0.00 | 75 | 1007.1 |
| 20260506205806 | 69 | 194 | 1.7 | 1.7 | 0.00 | 0.00 | 0.00 | 76 | 1007.3 |
| 20260506205305 | 69 | 238 | 0.9 | 0.9 | 0.00 | 0.00 | 0.00 | 76 | 1007.2 |
| 20260506204758 | 69 | 238 | 2.6 | 3.5 | 0.00 | 0.00 | 0.00 | 76 | 1007.3 |
| 20260506204257 | 69 | 215 | 1.7 | 2.6 | 0.00 | 0.00 | 0.00 | 77 | 1006.9 |
| 20260506203754 | 68 | 295 | 2.6 | 3.5 | 0.00 | 0.00 | 0.00 | 77 | 1007.1 |
| 20260506203251 | 68 | 301 | 2.6 | 2.6 | 0.00 | 0.00 | 0.00 | 78 | 1007.2 |
| 20260506202748 | 68 | 228 | 1.7 | 2.6 | 0.00 | 0.00 | 0.00 | 78 | 1007.1 |
| 20260506202245 | 68 | 247 | 0.9 | 1.7 | 0.00 | 0.00 | 0.00 | 78 | 1007.0 |
| 20260506201741 | 68 | 208 | 0.9 | 1.7 | 0.00 | 0.00 | 0.00 | 77 | 1007.2 |
| 20260506201238 | 69 | 167 | 0.9 | 0.9 | 0.00 | 0.00 | 0.00 | 77 | 1007.1 |